#timestamp,LO_Frequency,Hit 
1500771615.1,286045498.0,N
1500771635.9,286045500.4,N
1500771655.7,286045498.4,N
1500771675.5,286045498.2,N
1500771695.4,286045501.5,N
1500771715.2,286045498.3,N
1500771735.1,286045494.3,N
1500771736.0,286045494.3,N
1500771755.8,286045494.1,N
1500771775.6,286045496.9,N
1500771795.5,286045495.9,N
1500771815.3,286045496.1,N
1500771835.1,286045495.9,N
1500771855.9,286045494.3,N
1500771875.7,286045498.4,N
1500771895.6,286045500.3,N
1500771915.4,286045500.3,N
1500771935.2,286045496.2,N
1500771955.1,286045498.8,N
1500771956.0,286045498.8,N
1500771975.8,286045497.8,N
1500771995.7,286045498.6,N
1500772015.5,286045498.8,N
1500772035.3,286045498.1,N
1500772055.2,286045500.3,N
1500772075.0,286045499.8,N
1500772075.9,286045499.8,N
1500772095.7,286045496.1,N
1500772115.6,286045498.3,N
1500772135.4,286045498.5,N
1500772155.3,286045498.6,N
1500772175.1,286045496.6,N
1500772195.8,286045496.4,N
1500772215.7,286045498.3,N
1500772235.5,286045494.3,N
1500772255.4,286045494.3,N
1500772275.2,286045497.2,N
1500772295.0,286045498.4,N
1500772295.9,286045498.4,N
1500772315.8,286045496.0,N
1500772335.6,286045498.8,N
1500772355.4,286045496.5,N
1500772375.3,286045498.0,N
1500772395.1,286045498.8,N
1500772415.9,286045497.6,N
1500772435.7,286045495.7,N
1500772455.5,286045497.0,N
1500772475.4,286045496.9,N
1500772495.2,286045496.3,N
1500772515.1,286045496.4,N
1500772516.0,286045496.4,N
1500772535.8,286045496.8,N
1500772555.6,286045496.0,N
1500772575.5,286045498.3,N
1500772595.3,286045495.9,N
1500772615.1,286045496.0,N
1500772635.9,286045498.3,N
1500772655.7,286045497.9,N
1500772675.6,286045497.3,N
1500772695.4,286045500.3,N
1500772715.2,286045497.3,N
1500772735.1,286045498.1,N
1500772736.0,286045498.1,N
1500772755.8,286045497.7,N
1500772775.7,286045498.1,N
1500772795.5,286045497.3,N
1500772815.3,286045499.9,N
1500772835.2,286045497.7,N
1500772855.0,286045497.5,N
1500772855.9,286045497.5,N
1500772875.7,286045500.0,N
1500772895.6,286045499.1,N
1500772915.4,286045501.6,N
1500772935.3,286045500.2,N
1500772955.1,286045497.7,N
1500772956.0,286045497.7,N
1500772975.8,286045500.0,N
1500772995.7,286045497.4,N
1500773015.5,286045497.7,N
1500773035.4,286045498.4,N
1500773055.2,286045497.9,N
1500773075.0,286045500.2,N
1500773075.9,286045500.2,N
1500773095.8,286045499.5,N
1500773115.6,286045499.4,N
1500773135.4,286045501.5,N
1500773155.3,286045499.4,N
1500773175.1,286045500.7,N
1500773195.9,286045500.4,N
1500773215.7,286045500.3,N
1500773235.5,286045499.8,N
1500773255.4,286045499.5,N
1500773275.2,286045499.1,N
1500773295.0,286045499.1,N
1500773296.0,286045499.1,N
1500773315.8,286045500.6,N
1500773335.6,286045501.8,N
1500773355.5,286045502.0,N
1500773375.3,286045502.0,N
1500773395.1,286045501.2,N
1500773415.9,286045499.3,N
1500773435.7,286045499.3,N
1500773455.6,286045501.9,N
1500773475.4,286045502.0,N
1500773495.2,286045501.5,N
1500773515.1,286045500.5,N
1500773516.0,286045500.5,N
1500773535.8,286045500.9,N
1500773555.7,286045500.5,N
1500773575.5,286045500.5,N
1500773595.3,286045500.8,N
1500773615.2,286045501.6,N
1500773635.0,286045500.6,N
1500773635.9,286045500.6,N
1500773655.8,286045501.3,N
1500773675.6,286045498.9,N
1500773695.4,286045499.0,N
1500773715.3,286045501.8,N
1500773735.1,286045501.6,N
1500773755.8,286045501.6,N
1500773775.7,286045498.9,N
1500773795.5,286045501.9,N
1500773815.4,286045500.7,N
1500773835.2,286045501.8,N
1500773855.0,286045500.0,N
1500773855.9,286045500.0,N
1500773875.8,286045499.8,N
1500773895.6,286045499.3,N
1500773915.4,286045499.8,N
1500773935.3,286045500.3,N
1500773955.1,286045497.6,N
1500773975.9,286045500.1,N
1500773995.7,286045500.0,N
1500774015.5,286045499.6,N
1500774035.4,286045500.2,N
1500774055.2,286045499.0,N
1500774075.1,286045497.9,N
1500774076.0,286045497.9,N
1500774095.8,286045498.1,N
1500774115.6,286045496.4,N
1500774135.5,286045497.8,N
1500774155.3,286045499.3,N
1500774175.1,286045499.5,N
1500774195.9,286045497.5,N
1500774215.7,286045499.7,N
1500774235.6,286045499.9,N
1500774255.4,286045500.4,N
1500774275.2,286045498.4,N
1500774295.1,286045498.1,N
1500774296.0,286045498.1,N
1500774315.8,286045498.6,N
1500774335.7,286045496.3,N
1500774355.5,286045498.3,N
1500774375.3,286045500.2,N
1500774395.2,286045499.7,N
1500774415.0,286045500.3,N
1500774415.9,286045500.3,N
1500774435.8,286045501.5,N
1500774455.6,286045499.3,N
1500774475.4,286045499.2,N
1500774495.3,286045499.0,N
1500774515.1,286045500.9,N
1500774535.8,286045501.7,N
1500774555.7,286045501.8,N
1500774575.5,286045501.7,N
1500774595.4,286045502.0,N
1500774615.2,286045499.0,N
1500774635.0,286045500.3,N
1500774635.9,286045500.3,N
1500774655.8,286045497.7,N
1500774675.6,286045495.7,N
1500774695.5,286045498.3,N
1500774715.3,286045499.5,N
1500774735.1,286045500.2,N
1500774755.9,286045500.1,N
1500774775.7,286045500.3,N
1500774795.5,286045497.3,N
1500774815.4,286045500.2,N
1500774835.2,286045502.0,N
1500774855.1,286045501.0,N
1500774856.0,286045501.0,N
1500774875.8,286045501.6,N
1500774895.6,286045502.8,N
1500774915.5,286045503.0,N
1500774935.3,286045502.6,N
1500774955.2,286045504.1,N
1500774975.9,286045504.8,N
1500774995.7,286045502.8,N
1500775015.6,286045500.9,N
1500775035.4,286045501.3,N
1500775055.2,286045501.4,N
1500775075.1,286045499.0,N
1500775076.0,286045499.0,N
1500775095.8,286045500.8,N
1500775115.7,286045499.6,N
1500775135.5,286045500.1,N
1500775155.3,286045501.7,N
1500775175.2,286045503.4,N
1500775195.0,286045502.2,N
1500775195.9,286045502.2,N
